Date String (YYYY-MM-DD hh:mm:ss) UTC,Instrument flags,Ambient pressure (hPa),Sample flow (lpm),Bypass flow (lpm),Sample temperature (°C),Ambient temperature (°C),ASC tube jacket temperature (°C),LED temperature (°C),Box temperature (°C),Sample RH (%),Span deviation,Mass concentration (μg/m³),Mass concentration (μg/m³),Mass concentration (μg/m³)
DateTimeUTC,F1_M11,P_M11,Q1_M11,Q2_M11,T1_M11,T2_M11,T3_M11,T4_M11,T5_M11,U1_M11,ZSPAN_M11,X2_M11,X0_M11,X1_M11
2022-06-25 17:00:00,,0836.0,4.99,0.00,30.3,27.8,00.0,39.2,31.9,19.3,0000.0,0001.74,0005.59,0001.27
2022-06-25 17:01:00,,0836.0,4.99,0.00,30.2,28.0,00.0,39.1,31.9,19.6,0000.0,0001.71,0005.49,0001.28
2022-06-25 17:02:00,,0836.0,5.00,0.00,30.2,28.1,00.0,39.1,31.9,19.6,0000.0,0001.65,0005.26,0001.28
2022-06-25 17:03:00,,0836.0,5.00,0.00,30.2,28.3,00.0,39.1,31.9,19.7,0000.0,0001.61,0005.10,0001.27
2022-06-25 17:04:00,,0836.0,5.00,0.00,30.2,28.4,00.0,39.1,31.9,19.7,0000.0,0001.66,0005.29,0001.28
2022-06-25 17:05:00,,0836.0,5.01,0.00,30.1,28.5,00.0,39.1,31.9,19.7,0000.0,0001.65,0004.49,0001.29
2022-06-25 17:06:00,,0836.0,5.00,0.00,30.1,28.6,00.0,39.1,31.9,19.9,0000.0,0001.66,0004.14,0001.29
2022-06-25 17:07:00,,0836.0,4.99,0.00,30.2,28.7,00.0,39.0,32.0,19.6,0000.0,0001.64,0004.10,0001.30
2022-06-25 17:08:00,,0836.0,4.99,0.00,30.2,28.8,00.0,39.0,32.0,19.6,0000.0,0001.63,0004.08,0001.30
2022-06-25 17:09:00,,0836.0,5.00,0.00,30.2,28.9,00.0,39.0,32.0,19.5,0000.0,0001.65,0004.04,0001.30
2022-06-25 17:10:00,,0836.0,5.01,0.00,30.2,29.0,00.0,39.0,32.0,19.8,0000.0,0001.67,0004.37,0001.29
2022-06-25 17:11:00,,0836.0,5.01,0.00,30.2,29.0,00.0,39.0,32.0,19.6,0000.0,0001.72,0003.90,0001.28
2022-06-25 17:12:00,,0836.0,5.00,0.00,30.2,29.1,00.0,39.1,32.1,19.6,0000.0,0001.74,0004.23,0001.28
2022-06-25 17:13:00,,0835.9,4.99,0.00,30.2,29.2,00.0,39.1,32.1,19.4,0000.0,0001.80,0004.80,0001.29
2022-06-25 17:14:00,,0835.9,5.00,0.00,30.3,29.2,00.0,39.1,32.1,19.4,0000.0,0001.87,0005.05,0001.30
2022-06-25 17:15:00,,0835.9,5.01,0.00,30.3,29.2,00.0,39.1,32.1,19.2,0000.0,0001.85,0004.94,0001.30
2022-06-25 17:16:00,,0835.9,5.00,0.00,30.3,29.3,00.0,39.1,32.2,19.1,0000.0,0001.83,0004.81,0001.31
2022-06-25 17:17:00,,0835.9,5.01,0.00,30.3,29.3,00.0,39.1,32.2,19.3,0000.0,0001.85,0004.77,0001.32
2022-06-25 17:18:00,,0835.9,4.99,0.00,30.3,29.4,00.0,39.1,32.2,19.3,0000.0,0001.95,0004.93,0001.32
2022-06-25 17:19:00,,0835.9,5.01,0.00,30.4,29.4,00.0,39.1,32.2,19.2,0000.0,0001.96,0004.99,0001.34
2022-06-25 17:20:00,,0835.9,5.00,0.00,30.4,29.4,00.0,39.1,32.2,19.5,0000.0,0001.97,0005.13,0001.35
2022-06-25 17:21:00,,0835.9,4.99,0.00,30.4,29.5,00.0,39.2,32.3,19.2,0000.0,0002.01,0004.86,0001.37
2022-06-25 17:22:00,,0835.9,5.02,0.00,30.4,29.5,00.0,39.2,32.3,19.2,0000.0,0001.99,0004.27,0001.39
2022-06-25 17:23:00,,0835.9,5.00,0.00,30.4,29.5,00.0,39.2,32.3,19.2,0000.0,0002.04,0004.06,0001.41
2022-06-25 17:24:00,,0835.9,4.99,0.00,30.5,29.6,00.0,39.2,32.3,19.1,0000.0,0002.06,0003.73,0001.43
2022-06-25 17:25:00,,0835.9,5.00,0.00,30.5,29.5,00.0,39.2,32.3,19.6,0000.0,0002.01,0003.46,0001.44
2022-06-25 17:26:00,,0835.8,5.00,0.00,30.5,28.9,00.0,39.2,32.2,19.3,0000.0,0001.99,0003.37,0001.45
2022-06-25 17:27:00,,0835.9,5.01,0.00,30.4,28.0,00.0,39.1,32.0,19.2,0000.0,0002.01,0004.44,0001.47
2022-06-25 17:28:00,,0835.8,5.00,0.00,30.3,27.7,00.0,39.0,31.8,19.5,0000.0,0002.04,0004.89,0001.47
2022-06-25 17:29:00,,0835.8,4.99,0.00,30.2,27.6,00.0,39.0,31.7,19.7,0000.0,0001.94,0004.68,0001.47
2022-06-25 17:30:00,,0835.8,5.00,0.00,30.1,27.7,00.0,39.0,31.7,19.6,0000.0,0001.95,0005.82,0001.47
2022-06-25 17:31:00,,0835.8,5.00,0.00,30.1,27.8,00.0,39.0,31.7,19.7,0000.0,0001.97,0005.76,0001.47
2022-06-25 17:32:00,,0835.8,5.00,0.00,30.0,28.0,00.0,38.9,31.8,19.9,0000.0,0001.94,0005.68,0001.46
2022-06-25 17:33:00,,0835.8,5.01,0.00,30.0,28.2,00.0,38.9,31.8,19.7,0000.0,0001.94,0005.78,0001.46
2022-06-25 17:34:00,,0835.8,5.00,0.00,30.0,28.3,00.0,38.9,31.8,19.7,0000.0,0001.95,0007.37,0001.44
2022-06-25 17:35:00,,0835.8,5.00,0.00,30.0,28.5,00.0,38.9,31.8,20.0,0000.0,0001.93,0007.91,0001.42
2022-06-25 17:36:00,,0835.9,5.00,0.00,30.0,28.6,00.0,38.9,31.8,19.8,0000.0,0001.94,0008.36,0001.41
2022-06-25 17:37:00,,0835.8,5.01,0.00,30.0,28.7,00.0,38.9,31.9,20.0,0000.0,0001.93,0008.54,0001.39
2022-06-25 17:38:00,,0835.9,5.00,0.00,30.1,28.8,00.0,38.9,31.9,19.7,0000.0,0001.93,0008.02,0001.37
2022-06-25 17:39:00,,0835.8,5.01,0.00,30.1,28.9,00.0,38.9,31.9,19.6,0000.0,0001.90,0008.44,0001.37
2022-06-25 17:40:00,,0835.8,4.99,0.00,30.1,28.9,00.0,38.9,32.0,19.9,0000.0,0001.88,0008.42,0001.37
2022-06-25 17:41:00,,0835.8,5.00,0.00,30.1,29.0,00.0,38.9,32.0,19.8,0000.0,0001.90,0007.82,0001.37
2022-06-25 17:42:00,,0835.8,5.00,0.00,30.1,29.1,00.0,38.9,32.0,19.7,0000.0,0001.89,0007.81,0001.37
2022-06-25 17:43:00,,0835.9,5.00,0.00,30.1,29.1,00.0,38.9,32.0,19.6,0000.0,0001.90,0007.82,0001.38
2022-06-25 17:44:00,,0835.8,4.99,0.00,30.2,29.2,00.0,39.0,32.1,19.5,0000.0,0001.90,0007.83,0001.39
2022-06-25 17:45:00,,0835.8,5.00,0.00,30.2,29.2,00.0,39.0,32.1,19.4,0000.0,0001.86,0006.14,0001.40
2022-06-25 17:46:00,,0835.8,5.00,0.00,30.2,29.3,00.0,39.0,32.1,19.6,0000.0,0001.86,0005.35,0001.44
2022-06-25 17:47:00,,0835.8,5.01,0.00,30.2,29.3,00.0,39.0,32.1,19.7,0000.0,0001.86,0004.67,0001.46
2022-06-25 17:48:00,,0835.9,5.00,0.00,30.3,29.3,00.0,39.0,32.2,19.7,0000.0,0001.87,0004.41,0001.47
2022-06-25 17:49:00,,0835.8,5.00,0.00,30.3,29.4,00.0,39.0,32.2,19.5,0000.0,0001.88,0005.21,0001.49
2022-06-25 17:50:00,,0835.9,5.00,0.00,30.3,29.4,00.0,39.0,32.2,19.9,0000.0,0001.91,0004.16,0001.50
2022-06-25 17:51:00,,0835.9,5.01,0.00,30.3,29.4,00.0,39.1,32.2,19.7,0000.0,0001.99,0004.32,0001.51
2022-06-25 17:52:00,,0835.9,5.00,0.00,30.4,29.5,00.0,39.1,32.3,19.3,0000.0,0002.00,0004.32,0001.53
2022-06-25 17:53:00,,0835.9,5.00,0.00,30.4,29.4,00.0,39.1,32.3,19.3,0000.0,0002.02,0004.35,0001.55
2022-06-25 17:54:00,,0835.9,5.01,0.00,30.3,28.7,00.0,39.0,32.1,19.3,0000.0,0002.07,0004.47,0001.56
2022-06-25 17:55:00,,0835.9,5.00,0.00,30.2,27.8,00.0,39.0,31.8,19.5,0000.0,0002.12,0004.59,0001.56
2022-06-25 17:56:00,,0835.8,4.98,0.00,30.2,27.6,00.0,38.9,31.7,19.8,0000.0,0002.15,0004.71,0001.55
2022-06-25 17:57:00,,0835.8,5.00,0.00,30.1,27.6,00.0,38.9,31.7,19.5,0000.0,0002.19,0005.97,0001.54
2022-06-25 17:58:00,,0835.8,4.99,0.00,30.0,27.7,00.0,38.9,31.7,19.5,0000.0,0002.19,0007.46,0001.54
2022-06-25 17:59:00,,0835.9,5.00,0.00,30.0,27.9,00.0,38.9,31.7,19.6,0000.0,0002.21,0007.46,0001.55
